Theta_e
287 287 288 288 289 289 290 290 288 288 289 289 288 288 288 289 289 290 290 290 291 291 292 292 292 292 292 291 292 292 292 293 293 293 293 294 294 295 295 295 296 296 296 296 296 296 296 296 295 295 294 293 292 291 289 289 288 288 287 287 287 287 286 286 286 286 286 286 286
287 287 286 287 287 288 289 289 289 289 289 289 289 288 288 289 289 289 289 289 290 291 291 292 291 291 291 291 292 292 293 293 293 293 293 294 294 294 294 294 294 295 295 295 295 294 294 294 293 292 292 290 290 289 288 288 287 287 287 287 287 287 286 286 286 286 286 286 286
286 286 286 287 287 288 289 289 289 288 287 288 288 288 288 289 289 289 289 289 289 290 290 291 290 290 291 292 292 292 293 293 294 293 294 294 294 293 293 293 293 293 293 293 292 292 292 291 290 290 290 290 289 288 288 287 287 287 287 286 287 287 287 287 287 286 286 286 286
285 286 286 287 287 287 287 288 287 287 287 288 287 287 288 289 290 289 289 288 288 289 290 290 290 290 290 291 292 292 292 292 293 293 293 292 292 293 292 292 292 292 291 291 290 290 290 290 290 289 289 288 287 286 287 287 287 287 287 286 287 287 287 287 287 287 287 287 286
285 285 286 286 286 286 285 286 286 286 287 288 288 288 288 288 288 288 287 287 288 289 289 288 289 289 289 290 290 290 290 290 290 290 290 290 290 290 291 291 291 291 291 291 291 290 290 289 289 288 287 286 287 287 287 287 286 286 286 286 286 286 286 287 287 287 287 287 286
286 285 284 284 285 285 285 285 285 285 286 287 287 287 288 288 288 288 287 287 287 287 286 286 286 286 287 287 288 288 288 288 288 288 288 288 288 288 288 289 291 291 292 291 290 289 288 288 288 288 287 287 287 287 286 286 285 285 285 286 286 286 286 286 286 286 286 286 285
285 285 285 284 284 285 285 285 285 285 285 286 286 286 286 286 286 286 286 286 286 285 285 285 286 286 286 286 287 287 287 287 287 286 286 286 287 287 288 289 289 289 289 288 287 286 286 285 287 287 287 287 287 286 285 285 285 285 285 285 286 286 286 285 286 286 286 285 284
285 285 285 285 285 285 285 285 285 285 286 286 286 286 286 285 285 285 285 285 285 285 285 285 286 286 286 286 286 286 286 286 286 286 286 287 287 287 287 286 286 286 285 284 284 284 284 285 286 286 286 286 287 286 285 284 284 284 284 284 285 285 285 285 285 285 285 284 284
285 285 284 284 284 285 285 285 285 285 286 286 285 285 285 285 285 285 285 286 285 284 284 285 285 285 285 285 285 285 285 285 285 285 285 286 286 285 285 285 284 284 284 283 283 283 283 284 284 285 285 286 286 285 284 284 284 283 283 283 284 284 284 284 284 284 284 283 283
286 285 284 284 284 284 284 284 284 285 285 285 285 285 285 285 285 285 285 285 284 284 284 284 284 285 285 285 285 285 284 284 284 284 284 285 284 284 284 284 283 283 283 283 283 283 283 283 283 283 283 283 283 283 282 282 282 282 282 282 282 282 282 282 282 282 282 282 282
286 285 284 284 284 284 284 285 284 284 285 285 285 284 284 284 284 284 284 283 284 284 284 284 284 284 285 284 284 284 284 284 283 283 283 283 283 283 283 283 283 282 282 282 282 281 281 282 281 281 281 281 281 281 281 281 281 280 280 280 280 280 280 280 280 281 281 281 281
286 285 284 284 284 284 284 285 284 284 284 284 284 284 284 284 284 283 283 283 284 284 284 284 284 284 284 283 283 283 282 282 282 282 282 282 282 282 282 282 282 281 281 281 281 280 281 280 280 280 280 280 280 280 280 280 280 279 279 279 279 279 279 280 279 279 280 280 280
285 285 284 284 284 284 284 284 284 284 284 284 284 284 284 284 283 283 283 283 284 283 283 283 283 283 283 282 282 281 281 281 281 281 281 281 281 281 281 281 281 281 281 281 280 280 281 281 280 280 280 280 280 280 280 280 279 279 279 279 279 279 279 280 280 280 280 280 280
284 284 284 284 283 283 284 284 284 284 284 284 284 284 283 283 283 282 283 283 283 283 282 282 281 281 281 281 281 281 281 281 281 281 281 281 281 281 281 281 281 281 281 281 281 281 281 281 281 281 280 281 280 280 280 280 280 280 280 280 280 280 280 280 280 280 280 280 280
284 284 284 284 283 284 284 285 285 285 285 285 284 283 283 283 282 282 283 283 283 282 281 281 281 281 282 282 282 282 282 282 281 281 281 281 281 281 281 281 281 281 281 281 281 281 282 282 281 281 281 281 281 281 280 280 280 280 280 280 280 280 280 280 280 280 280 280 279
284 284 284 284 284 284 285 286 286 285 285 284 283 283 283 283 282 282 282 283 282 281 281 282 282 283 283 284 283 283 283 282 282 281 281 281 281 281 281 281 281 281 282 282 282 282 282 282 282 282 282 281 281 281 281 281 281 280 280 280 280 280 280 280 280 280 280 280 280
284 284 284 284 284 285 285 286 285 285 284 284 283 282 282 282 282 283 283 283 283 283 284 285 285 285 286 286 285 284 283 282 282 281 281 281 281 281 282 282 282 282 282 282 282 282 282 282 282 282 282 281 281 281 281 281 281 281 280 280 280 280 280 280 280 280 280 280 280
284 285 284 284 285 285 286 285 285 284 284 283 282 282 282 282 283 284 284 285 285 286 287 288 288 287 287 287 285 284 283 282 282 282 282 282 282 282 282 282 283 282 282 282 282 282 282 282 282 282 281 281 281 281 281 280 280 280 280 280 280 280 280 280 280 280 280 279 280
285 285 285 285 285 285 285 284 284 283 283 282 282 282 283 283 285 286 287 287 287 288 289 290 289 288 287 286 284 283 283 282 282 282 282 282 282 282 282 282 282 282 282 282 282 282 282 282 282 281 281 281 280 280 280 280 280 279 279 280 280 280 279 279 279 279 279 279 279
285 285 285 285 285 284 284 283 283 283 283 283 283 284 285 286 287 288 289 289 289 290 290 290 289 287 286 284 283 282 282 282 282 282 282 282 282 282 282 282 282 282 281 281 281 281 281 281 281 280 280 280 280 279 279 279 279 279 279 279 279 279 279 279 278 278 278 277 277
285 284 284 284 283 283 283 283 283 283 284 284 285 286 287 287 289 289 290 291 290 289 289 288 286 285 284 283 282 282 281 282 282 282 281 281 282 282 282 281 281 281 280 280 280 280 280 280 280 280 279 279 279 279 279 279 278 278 278 278 278 278 277 277 277 276 276 276 276
284 283 283 282 283 283 283 284 284 285 286 286 287 288 288 289 290 290 290 290 289 288 286 285 284 283 283 282 282 281 280 280 281 281 281 281 281 281 281 281 280 280 279 279 279 279 279 279 279 279 279 279 278 278 279 279 278 278 277 277 276 276 276 275 275 275 275 275 275
283 283 283 283 283 284 284 285 286 286 287 288 288 289 289 290 290 290 289 287 286 285 284 283 282 281 281 280 280 280 280 280 280 280 280 280 280 280 280 279 279 279 279 279 279 279 278 278 279 278 278 278 278 278 278 278 278 277 276 276 275 275 274 274 274 274 275 275 276
282 283 283 284 284 285 285 286 286 287 288 288 289 289 289 290 288 287 286 284 283 281 280 280 280 280 279 280 280 280 280 280 280 280 279 279 279 279 279 278 278 279 279 279 280 280 280 280 280 280 279 279 279 278 278 277 276 276 275 275 275 275 274 274 274 275 275 276 277
283 284 284 285 285 285 286 286 287 287 287 288 288 287 286 285 284 283 282 280 279 279 279 278 279 279 279 279 279 280 280 280 280 280 279 279 279 278 278 278 279 279 280 280 284 285 286 284 284 282 281 280 279 278 277 276 275 275 275 275 275 275 275 275 275 276 276 276 277
284 284 284 285 285 285 285 285 286 286 286 285 285 284 283 282 281 280 280 279 279 279 279 278 278 279 279 279 279 279 279 279 279 279 279 279 279 279 279 279 280 280 282 283 285 286 287 287 286 284 282 279 278 276 276 275 275 275 275 275 275 275 275 276 276 277 277 278 278
284 284 284 284 284 284 284 284 284 284 284 284 283 282 281 280 280 279 279 279 278 279 279 278 278 279 279 278 279 279 279 279 279 279 279 279 279 279 280 281 281 282 283 285 286 286 286 286 286 285 283 278 276 275 275 274 274 274 274 274 275 275 275 276 277 277 278 278 278
283 283 283 283 284 284 284 283 283 283 282 282 281 281 280 280 279 279 279 279 279 278 278 278 279 279 279 278 279 279 279 279 279 280 280 280 280 281 281 282 282 283 284 285 285 285 285 285 286 286 285 280 275 274 274 274 274 274 274 274 275 275 275 276 277 277 278 278 277
283 283 283 283 283 283 283 283 282 282 281 281 281 280 280 280 279 279 279 279 279 278 278 278 279 279 279 279 279 279 279 280 280 281 282 282 283 283 284 284 283 283 283 284 284 284 285 286 286 287 287 285 278 274 273 274 274 274 274 275 275 276 276 277 277 277 277 277 277
282 282 282 283 283 283 282 282 281 281 280 280 280 280 280 279 279 279 279 278 278 279 279 279 279 279 279 280 280 280 281 282 283 284 285 285 285 285 284 283 281 280 281 283 283 284 285 286 286 287 287 286 281 277 274 274 274 274 275 276 276 276 276 276 276 276 276 277 277
281 281 281 281 281 281 281 280 280 280 280 280 280 279 279 279 279 279 279 278 278 278 278 278 278 279 280 280 281 283 284 285 286 286 286 285 284 283 281 279 277 277 278 282 283 284 285 286 286 286 286 285 281 278 275 274 274 274 275 276 276 276 276 276 276 276 276 276 276
280 280 280 280 280 280 280 279 279 279 279 279 279 279 279 279 279 279 278 278 278 278 278 278 280 281 283 285 286 286 286 286 286 286 285 283 280 278 276 274 273 274 277 282 283 284 285 286 285 285 285 285 282 278 275 274 274 274 274 275 275 275 275 276 276 276 276 276 276
279 279 279 280 280 279 279 279 278 278 278 279 279 280 280 279 279 279 278 278 278 279 281 282 284 285 286 287 287 287 286 286 285 282 280 277 275 273 272 272 272 274 278 282 283 284 285 285 285 284 284 285 281 278 275 274 274 274 274 275 275 275 275 275 276 276 276 277 277
278 279 279 279 279 279 278 277 277 278 279 280 280 281 281 280 280 280 281 281 283 284 285 286 287 287 287 287 286 285 284 282 280 277 274 272 271 271 271 271 271 274 279 282 283 284 284 284 284 284 284 284 280 277 274 274 274 274 274 275 275 275 275 276 276 276 277 277 278
278 278 279 278 278 278 278 277 278 279 280 281 281 282 282 282 283 284 285 286 287 287 287 287 286 285 284 283 281 280 278 276 274 273 271 270 270 270 271 271 271 275 279 282 283 284 284 284 284 284 283 282 278 275 274 273 273 273 274 274 275 275 276 277 277 278 278 278 280
277 278 278 279 279 279 279 279 280 281 282 283 283 283 284 285 286 287 287 287 287 286 285 284 282 280 278 277 275 274 273 273 273 272 271 270 270 269 270 270 270 274 279 282 283 283 283 283 283 284 283 280 276 274 273 273 273 273 274 274 275 276 277 278 278 279 279 279 280
277 278 279 280 281 281 281 282 283 284 285 285 285 286 286 286 287 287 286 286 285 284 282 279 277 276 275 274 273 272 272 271 272 271 271 271 270 269 269 269 269 272 276 281 282 283 283 283 283 283 282 278 275 274 273 273 273 273 274 276 278 279 279 278 279 279 279 278 278
279 280 281 283 284 284 284 285 285 286 286 287 287 287 286 285 285 285 283 282 282 281 279 276 275 274 274 273 272 272 271 270 271 270 270 270 269 269 269 269 269 271 274 279 281 282 283 283 283 282 281 277 275 274 273 273 273 274 275 278 279 279 279 278 278 278 277 277 278
281 282 284 286 286 287 287 287 287 287 286 286 286 285 285 284 283 282 280 278 278 277 277 276 275 274 273 272 271 271 270 270 270 270 270 269 269 269 270 269 270 271 274 278 281 282 282 283 283 283 281 278 275 274 273 273 274 274 276 278 278 278 278 277 277 277 277 276 280
284 285 287 287 287 287 287 287 286 286 285 285 284 284 283 282 281 280 278 275 275 275 275 274 274 273 272 272 271 270 269 269 268 268 269 269 269 272 273 270 269 270 273 277 280 281 282 282 282 282 282 279 276 274 274 274 275 275 276 278 278 278 277 278 278 278 278 277 279
287 287 287 287 287 286 286 285 285 285 284 283 283 282 281 280 278 277 275 274 273 273 273 273 272 271 271 271 269 268 268 268 268 268 268 268 269 271 272 270 269 269 270 274 278 280 281 282 282 282 282 280 276 275 274 276 277 277 277 278 278 278 278 278 278 279 279 278 277
Wind_Speed
2 2 2 2 2 2 2 2 2 2 2 1 2 2 2 1 0 0 0 0 1 1 2 2 3 3 3 3 4 5 5 5 4 4 4 4 4 3 3 2 2 2 2 2 3 3 3 4 4 3 3 3 3 3 3 3 4 4 4 4 4 4 4 4 5 5 5 5 4
2 2 2 2 2 2 2 2 2 1 1 1 1 1 1 1 0 0 1 1 1 1 1 1 1 1 2 2 3 4 5 5 5 5 5 5 5 5 5 4 5 5 5 4 4 3 3 4 4 3 3 3 3 3 4 4 4 5 5 5 4 4 4 5 5 6 5 5 4
2 2 1 1 2 2 2 2 1 1 1 1 1 1 1 1 0 0 1 1 1 1 1 1 1 1 1 1 1 2 4 5 5 5 5 5 6 6 6 5 5 5 5 4 4 4 4 4 4 3 3 3 3 3 3 3 3 4 4 5 4 3 3 3 4 4 4 3 3
2 2 2 2 2 2 2 2 1 1 1 1 1 0 0 0 0 0 0 0 1 1 1 0 0 0 0 0 0 1 2 3 4 5 5 4 4 5 5 5 5 5 4 4 5 4 4 4 3 2 2 1 2 2 2 1 2 2 2 3 2 2 3 3 3 3 3 3 3
3 3 3 3 3 3 2 2 2 2 1 1 0 0 0 0 1 1 1 1 1 0 0 0 0 0 0 0 1 1 1 1 2 3 4 3 3 3 4 4 4 4 4 4 4 3 2 2 1 1 1 1 1 1 2 2 2 2 2 2 2 2 3 3 3 2 2 2 2
3 3 3 3 3 3 2 2 2 2 2 1 1 1 1 1 1 1 1 1 1 1 0 0 1 1 1 1 2 2 2 2 2 2 3 3 2 3 3 3 4 3 2 2 1 1 2 2 1 1 1 1 2 2 2 1 1 2 2 2 2 2 2 2 2 2 2 2 2
3 3 3 3 3 3 3 2 2 2 2 2 2 3 3 3 2 2 2 2 2 1 1 1 2 2 2 3 3 2 2 1 1 1 2 2 2 2 2 2 1 0 1 1 2 2 2 2 1 0 1 1 1 1 1 1 1 2 2 2 2 2 2 2 2 2 2 2 3
3 3 3 3 3 3 3 3 3 2 3 3 4 4 4 4 4 3 3 2 2 2 2 1 2 2 3 3 3 2 2 1 1 1 1 1 1 1 0 1 1 1 1 1 1 1 1 1 1 0 1 1 1 1 1 2 2 2 2 3 2 2 2 2 2 2 2 3 3
3 3 3 3 3 3 3 3 3 4 4 5 5 5 5 5 4 4 3 3 2 2 1 1 2 2 2 2 2 2 2 1 1 0 0 1 1 1 1 1 1 1 1 0 1 1 1 1 1 1 1 1 1 1 1 2 2 2 2 3 2 2 1 1 2 2 2 3 4
4 4 3 3 3 3 3 3 4 5 5 6 5 5 4 4 4 4 3 3 2 2 1 1 1 1 1 1 1 1 1 1 1 1 1 1 0 0 1 1 1 1 1 0 1 1 1 1 1 1 1 1 1 1 1 1 2 2 2 2 2 2 2 2 2 2 3 3 4
6 5 4 4 4 4 4 4 5 5 5 5 4 4 4 4 4 3 3 2 2 2 2 1 1 1 1 0 0 0 0 0 0 1 1 1 1 1 1 1 1 1 1 0 1 1 2 1 1 1 1 1 1 1 1 1 2 2 2 2 2 2 2 3 3 3 3 3 4
6 5 4 4 4 4 4 5 5 4 4 4 4 4 4 4 3 3 2 2 3 3 2 2 2 2 1 1 1 1 1 1 1 1 1 2 2 1 1 1 1 1 1 1 1 1 2 2 1 1 1 1 1 1 2 2 2 2 2 2 2 2 3 4 4 3 3 3 4
5 4 3 4 4 4 4 5 4 4 4 5 5 5 5 4 3 3 3 4 4 3 2 2 2 2 2 2 2 2 1 1 1 1 1 1 1 1 1 1 1 1 1 1 1 2 2 2 2 2 2 2 2 2 2 2 2 2 3 3 3 3 4 5 5 4 3 3 4
3 3 4 4 4 4 5 5 5 5 5 6 6 6 5 4 3 3 4 4 4 4 3 3 3 3 3 4 3 3 2 2 2 1 1 1 1 1 1 1 1 1 1 1 1 2 2 2 3 3 2 3 3 3 3 3 3 3 3 4 4 5 6 6 6 5 4 4 5
3 4 4 3 4 4 5 6 5 6 6 7 7 6 5 4 4 4 4 5 5 4 4 4 3 3 4 4 4 3 3 2 2 2 2 1 1 1 1 2 2 2 2 2 2 2 3 3 3 3 3 3 3 3 3 3 3 4 4 5 5 6 6 6 6 5 5 6 6
3 4 4 3 4 5 6 6 5 6 6 6 6 5 5 4 4 4 4 5 4 4 4 4 4 4 4 4 4 4 3 3 2 2 2 2 2 2 2 2 2 2 2 2 2 2 3 3 3 3 3 3 4 4 4 4 4 4 5 5 6 6 6 6 6 6 6 6 6
4 4 4 4 5 6 7 7 6 5 5 5 5 5 5 4 4 4 4 4 4 4 4 4 4 4 4 4 3 3 3 3 3 3 3 3 3 3 3 3 3 3 3 2 2 2 3 3 3 3 3 3 4 4 4 4 4 5 5 5 6 6 6 6 6 6 6 6 7
4 4 4 4 6 8 8 8 6 5 5 5 5 4 4 3 4 4 4 4 4 4 5 5 5 4 4 4 3 3 3 3 4 4 4 4 4 3 3 3 3 3 2 2 2 2 3 3 3 2 3 3 4 4 4 4 4 5 5 5 5 6 6 6 6 6 6 6 7
4 4 5 5 7 8 8 7 6 5 4 4 3 3 3 3 3 3 3 4 4 5 5 6 5 4 3 3 3 3 3 4 4 4 4 3 3 3 2 2 2 2 2 2 2 2 3 3 3 3 3 3 3 4 4 4 4 4 5 5 5 5 5 6 6 6 6 6 6
4 5 5 6 6 6 6 5 4 3 2 2 2 2 3 3 3 3 4 5 5 5 5 4 3 2 2 2 2 3 3 3 3 3 3 2 2 2 1 1 1 1 1 2 2 2 3 3 3 3 3 3 3 3 4 4 4 4 4 4 5 5 5 5 5 5 5 5 6
5 5 5 4 4 4 3 3 2 1 1 2 2 3 3 3 4 4 4 4 3 2 1 1 1 1 1 1 1 1 1 1 2 2 1 1 1 0 0 0 1 1 1 2 2 3 3 3 3 3 3 3 3 4 4 3 4 4 4 4 4 4 4 4 4 4 5 5 5
5 4 4 3 3 3 2 2 2 2 2 3 3 3 4 4 5 4 2 0 1 2 2 1 1 1 1 0 0 0 0 1 1 1 1 1 0 0 0 0 1 1 2 2 3 3 3 3 3 3 3 3 3 4 4 3 4 4 4 4 4 4 4 4 4 4 5 5 5
4 4 3 3 3 3 3 3 3 3 3 3 4 4 4 4 3 1 2 3 3 3 2 2 2 1 1 1 0 0 1 1 1 1 1 1 0 0 0 1 1 2 3 3 3 3 3 3 3 3 3 3 3 4 4 3 3 3 4 4 4 4 4 4 4 4 5 5 6
3 3 3 3 2 2 3 3 3 3 3 4 4 4 3 2 1 3 3 3 3 2 2 1 1 1 1 1 1 1 1 1 1 1 1 0 0 1 1 1 2 2 3 3 3 3 3 3 3 3 3 3 3 3 3 3 3 3 3 4 4 4 5 5 5 5 5 6 6
3 3 2 2 2 2 2 2 3 3 3 3 2 1 1 2 3 3 2 2 2 1 1 1 1 1 1 1 1 1 1 2 1 1 1 1 1 1 1 1 2 2 3 3 4 5 5 4 4 3 3 3 3 3 2 2 2 3 3 3 4 4 5 5 6 6 6 7 7
3 3 2 2 2 2 2 2 3 3 3 2 1 2 2 2 2 1 1 1 1 0 0 1 1 1 1 1 1 1 1 1 1 1 0 1 2 2 2 2 2 2 2 3 5 6 7 8 7 5 3 2 2 2 2 2 2 2 3 3 4 4 5 6 7 7 7 7 7
3 3 3 2 1 2 2 3 2 2 2 1 2 2 1 1 1 1 1 1 1 1 1 1 1 1 1 1 1 1 0 1 1 1 1 1 1 2 2 3 3 2 3 4 6 7 8 9 9 7 4 2 2 2 2 2 2 3 3 4 4 5 6 7 8 8 8 8 8
3 3 3 2 2 3 3 2 2 1 1 2 1 1 1 1 1 1 1 1 1 1 1 1 0 0 0 1 0 0 1 1 1 1 1 1 1 2 3 3 3 3 4 6 8 8 9 9 9 7 5 1 2 2 2 2 2 3 3 4 5 5 6 7 7 8 8 9 8
3 3 3 3 3 3 2 1 1 1 1 0 1 1 1 1 1 1 1 1 0 1 1 1 0 0 0 0 1 1 1 1 1 1 1 1 2 3 3 4 4 4 6 7 8 9 8 8 7 7 5 2 1 2 2 2 2 3 4 4 5 6 6 7 7 7 8 8 8
3 2 2 3 3 2 1 1 1 1 1 1 1 2 2 1 1 1 1 0 1 1 1 1 0 0 0 1 1 1 2 2 2 1 2 2 3 4 4 4 4 4 6 8 8 8 7 7 6 6 5 4 2 2 2 2 3 3 4 5 5 6 7 7 7 8 8 7 8
1 1 1 1 2 2 2 1 1 1 1 1 1 1 1 1 1 1 1 1 2 2 1 0 0 1 2 2 2 2 2 2 2 2 3 3 4 4 4 4 4 4 6 8 8 7 6 6 5 6 6 6 3 2 2 3 3 4 4 5 6 7 7 7 7 7 8 8 8
1 1 1 1 1 1 1 1 1 0 0 1 1 1 1 1 1 1 1 2 2 2 1 1 1 2 3 3 2 2 3 3 3 3 2 2 2 3 3 4 4 5 6 7 7 6 6 5 6 6 7 8 5 3 3 3 4 4 5 6 7 7 7 7 7 7 8 8 8
0 1 1 1 1 1 1 0 1 1 2 2 2 2 2 1 0 1 2 2 2 2 2 2 3 3 3 3 3 3 3 3 3 2 1 1 1 2 3 4 4 5 6 7 6 6 6 6 6 7 8 9 6 4 3 3 3 4 5 6 6 7 7 7 7 8 8 8 8
1 1 2 2 1 1 0 2 2 2 2 2 2 1 1 1 1 2 2 2 2 2 3 3 3 3 3 2 2 3 3 2 2 2 1 1 0 1 2 3 3 4 6 7 6 6 6 6 7 8 9 9 6 4 3 3 4 4 5 6 6 7 7 7 8 8 8 8 8
1 1 1 1 1 1 2 3 2 2 2 2 1 1 1 2 2 3 3 3 2 2 2 2 2 2 2 2 2 2 2 2 2 1 1 0 0 1 2 3 4 5 6 6 6 6 6 7 8 10 10 8 5 3 3 4 4 5 6 7 7 7 7 7 7 7 7 8 8
1 1 1 2 2 3 3 3 2 1 1 1 0 1 2 2 3 3 2 2 2 2 2 2 2 2 2 2 2 1 1 1 2 2 1 0 0 1 2 3 4 5 6 6 6 7 7 8 9 10 10 7 4 3 3 4 4 5 6 7 7 7 7 7 7 7 7 8 9
2 2 2 3 3 3 2 2 1 1 1 1 1 1 2 2 2 2 2 2 2 2 2 2 2 2 2 2 2 1 1 1 1 2 1 1 1 1 2 3 4 5 6 7 7 8 8 9 10 11 9 6 4 3 4 4 4 5 5 6 7 7 7 6 7 8 8 8 9
2 2 2 3 3 2 2 1 2 3 3 3 2 2 2 2 2 2 2 2 2 1 2 2 2 2 2 2 2 2 2 1 1 1 2 1 1 1 2 3 4 5 6 7 8 9 10 10 11 11 10 5 4 4 4 4 4 4 5 6 7 7 7 6 6 6 7 8 10
2 1 2 3 3 4 4 4 4 4 4 3 3 2 2 1 1 1 2 2 1 0 1 1 2 2 2 2 2 3 2 1 1 1 2 2 2 2 2 3 4 6 7 9 10 10 11 11 12 13 11 7 5 4 4 4 4 4 5 6 6 6 6 6 6 6 6 8 11
2 2 3 5 5 5 5 5 4 3 3 2 2 2 2 1 1 1 1 1 1 0 1 1 2 2 2 2 3 3 3 2 2 1 1 2 3 3 3 3 4 6 8 10 11 11 12 12 13 13 12 7 4 3 3 3 4 5 5 6 6 6 6 6 6 6 6 7 9
4 5 5 6 5 5 4 4 3 2 2 2 1 1 1 1 1 1 1 1 1 1 1 1 1 2 2 2 2 3 3 3 3 2 2 3 3 4 3 3 5 6 8 9 11 11 12 12 13 14 13 8 5 4 3 3 4 5 6 7 7 7 7 8 8 8 7 7 7
Wind_Direction
235 227 221 219 222 227 234 244 239 232 227 228 249 265 272 262 214 200 253 15 125 138 143 142 139 141 142 139 130 126 125 124 122 119 117 117 120 123 127 134 163 184 188 178 160 153 153 161 171 180 187 191 196 201 206 206 200 197 197 200 205 204 202 206 217 220 219 218 220
241 233 224 224 229 235 245 258 259 256 248 240 263 284 294 304 315 33 33 13 18 32 61 80 84 104 120 127 123 127 132 138 141 141 140 141 147 153 162 175 189 193 189 177 170 167 170 176 179 185 190 192 194 200 204 199 187 184 188 198 202 200 199 206 216 218 218 218 218
237 233 226 219 221 227 234 246 259 273 290 308 305 302 307 317 357 41 45 18 16 25 34 42 32 44 85 114 120 136 146 154 155 153 153 156 161 168 176 185 193 194 189 179 175 176 178 179 182 188 197 202 202 206 207 195 177 179 191 203 204 200 200 212 217 216 214 217 212
229 221 211 206 206 209 216 230 255 273 285 291 294 291 296 330 53 75 73 46 41 47 65 104 147 305 322 24 91 150 164 166 159 156 156 162 170 177 184 189 191 192 189 182 182 183 185 184 185 191 197 196 198 213 219 198 170 180 198 208 204 204 210 225 222 218 214 215 209
227 215 205 201 200 201 204 210 228 243 252 253 236 167 115 97 85 81 75 73 74 83 157 164 163 119 13 57 118 139 156 171 164 157 154 160 174 184 189 191 192 193 192 189 188 184 174 151 136 123 133 159 204 227 234 223 199 201 210 215 206 204 209 218 218 212 207 207 208
227 217 208 202 197 197 198 198 205 212 219 209 168 146 137 132 123 117 119 129 152 176 192 152 142 145 148 148 143 144 150 170 178 161 148 152 175 192 198 201 201 199 193 175 134 96 83 86 91 132 180 194 219 229 228 205 198 210 226 236 223 210 205 211 210 204 199 206 220
223 216 210 205 196 193 193 194 197 202 201 187 166 163 162 160 156 159 165 171 176 182 187 174 164 160 156 149 143 144 150 164 163 146 142 160 192 207 214 217 215 161 63 65 72 80 92 109 131 209 236 230 254 257 243 172 181 203 226 241 234 217 205 209 206 201 202 215 229
225 220 213 205 195 190 187 188 188 191 192 188 181 176 173 169 171 174 178 179 181 185 185 177 168 159 152 144 144 148 154 156 166 172 180 186 216 253 313 13 24 25 36 71 90 104 113 116 133 208 258 270 268 255 212 162 170 191 218 239 243 231 212 208 210 209 213 221 232
231 227 219 209 201 193 188 187 188 189 190 192 191 185 178 174 177 179 179 182 188 188 181 171 168 162 155 153 158 163 168 168 175 183 93 55 37 18 4 0 340 320 306 108 107 106 106 108 133 190 212 218 232 228 195 158 170 196 219 234 243 244 238 223 219 219 222 226 236
224 222 215 211 208 199 192 192 198 197 194 192 192 187 181 180 184 185 185 185 178 173 170 175 171 169 166 164 165 162 149 128 112 86 61 52 56 264 258 260 276 292 303 0 103 116 122 129 156 190 203 197 209 213 204 170 184 209 227 234 238 248 256 253 234 228 229 232 238
220 215 209 206 204 197 192 196 205 206 201 193 188 183 182 189 195 195 189 163 153 164 178 178 165 161 156 133 101 73 81 94 121 146 180 203 207 211 217 225 241 264 276 275 140 133 134 142 164 195 213 205 197 202 203 188 193 215 231 239 234 245 255 258 245 236 233 237 242
221 217 210 207 200 194 192 200 206 207 203 196 186 183 187 197 200 193 174 151 163 174 182 173 163 156 154 153 173 182 180 173 180 189 201 213 212 210 211 217 227 239 245 235 174 150 147 156 172 202 226 232 209 200 197 193 199 220 236 246 241 245 253 258 253 246 239 239 245
224 221 218 214 202 196 197 206 208 205 201 197 190 188 192 199 196 181 167 166 173 178 181 180 172 167 166 172 180 182 182 187 195 201 210 220 217 217 218 228 230 235 234 223 181 163 161 170 180 199 222 241 232 216 203 196 207 225 241 253 254 255 257 259 257 255 251 249 251
232 230 226 218 206 202 204 210 213 209 203 199 195 193 193 197 192 180 172 173 176 177 179 183 183 180 176 174 175 175 177 183 191 202 216 226 220 216 223 232 230 228 226 219 187 176 175 183 188 197 211 234 241 233 219 207 215 227 239 250 256 259 261 262 261 260 259 258 258
245 241 234 223 213 210 212 215 218 213 207 204 198 194 190 193 189 183 178 179 180 179 177 179 187 189 184 174 170 170 173 178 183 193 207 223 218 215 216 225 225 224 220 214 199 192 190 193 196 200 210 228 241 242 236 227 227 232 238 244 251 256 260 263 263 261 259 257 259
250 247 241 230 224 222 223 224 225 220 214 209 199 191 187 190 186 182 180 183 182 179 179 183 188 190 186 177 168 166 168 173 178 189 200 211 211 210 210 216 218 217 213 209 209 208 206 205 203 205 213 227 239 245 246 242 239 239 241 243 246 250 255 258 259 258 256 253 254
255 252 246 236 233 233 234 235 234 228 221 213 200 192 189 186 181 180 181 183 179 182 189 195 193 187 182 176 167 164 165 172 182 191 198 202 201 202 205 211 213 211 208 207 216 224 228 225 218 215 218 228 238 243 246 247 245 245 244 244 245 246 249 251 252 252 252 251 249
260 257 252 244 240 241 242 243 240 233 223 215 203 195 188 178 173 178 184 188 186 189 195 202 197 187 176 171 165 163 167 177 189 196 198 196 194 196 203 211 213 211 208 210 224 236 244 246 240 233 229 232 238 242 244 245 246 246 245 245 245 246 247 248 248 248 248 248 248
265 262 257 250 248 249 250 250 246 238 226 217 205 192 180 173 174 181 192 202 203 202 202 205 198 185 168 160 161 167 176 184 191 194 194 189 187 193 204 217 222 222 221 225 237 246 252 256 253 249 243 242 245 246 246 245 245 246 246 245 247 248 249 250 249 248 247 246 248
268 267 264 259 258 258 259 257 252 242 228 212 196 184 179 182 187 196 205 214 217 215 211 209 196 172 148 145 159 176 187 188 186 185 182 174 177 189 210 232 252 256 252 247 250 253 257 259 256 252 247 246 249 251 251 249 249 249 249 249 250 251 252 253 254 252 250 247 247
269 269 269 268 265 260 254 243 225 204 186 185 189 188 190 197 205 212 218 225 226 225 217 195 124 112 116 136 172 190 193 178 165 158 150 141 149 174 214 249 276 274 268 258 255 254 255 256 254 252 249 248 250 252 254 256 259 260 261 262 261 261 259 259 258 256 253 250 247
266 266 265 260 245 230 214 196 181 175 178 187 194 198 204 210 217 223 230 318 36 45 50 54 66 78 92 127 180 187 166 125 118 113 108 93 71 33 239 179 246 262 265 262 259 258 259 261 258 253 250 252 255 257 258 260 265 270 274 276 276 275 271 266 259 254 251 249 247
261 261 257 246 226 206 190 180 178 181 188 197 205 211 216 222 228 250 33 40 46 51 55 60 65 70 76 80 119 137 117 83 71 70 76 76 33 286 243 195 224 249 259 261 258 259 263 269 268 261 253 251 257 259 261 262 265 271 276 281 283 282 279 272 263 257 253 252 250
255 257 255 246 224 203 189 183 185 192 201 209 217 224 234 256 4 33 41 44 45 50 54 58 62 72 92 126 157 148 121 76 42 24 14 23 269 243 237 222 233 246 254 257 260 264 267 267 270 267 261 254 256 257 258 258 258 261 265 271 278 280 281 277 270 263 260 259 258
243 247 248 241 225 210 200 196 202 209 217 227 238 266 342 19 31 38 44 44 43 51 64 74 84 114 146 165 165 144 120 101 76 8 324 317 297 270 255 250 252 255 259 263 276 286 292 291 289 282 270 261 259 257 256 251 245 244 247 254 264 273 279 282 278 273 267 264 262
229 229 229 227 221 217 217 219 222 229 239 259 318 10 28 36 49 64 76 74 71 95 130 140 162 174 175 168 144 119 111 123 142 169 248 295 303 300 293 283 278 273 277 286 298 305 308 307 303 296 280 254 247 250 254 254 241 234 236 243 252 262 272 279 280 278 275 271 266
222 222 222 223 219 224 228 231 237 250 272 324 14 33 47 76 109 120 127 145 183 209 212 198 190 187 175 143 102 83 97 180 176 181 196 229 278 292 294 292 288 289 296 308 313 313 311 308 304 300 291 227 207 211 229 246 244 240 240 246 252 257 264 270 275 278 279 278 275
224 222 221 221 225 230 234 241 258 284 317 7 35 78 158 173 158 151 155 175 206 238 260 260 237 208 131 79 61 287 256 240 214 202 200 212 250 271 280 287 292 300 309 315 314 312 308 305 303 304 301 204 171 181 204 226 244 250 252 254 257 259 261 265 270 275 279 282 283
224 222 220 221 229 237 248 274 298 318 333 11 174 183 186 184 171 159 156 180 248 270 268 260 269 346 27 0 277 261 254 246 231 224 232 260 278 283 287 292 297 304 309 311 309 307 304 303 304 306 306 299 192 183 200 222 243 254 260 261 261 263 265 268 273 278 281 284 286
233 233 234 237 250 269 302 335 331 306 253 202 189 184 178 174 158 146 146 194 247 249 243 231 206 192 244 241 242 246 250 250 248 258 278 289 292 292 294 296 297 300 302 305 305 304 303 303 305 307 309 313 266 212 211 229 244 255 261 266 266 267 269 272 276 278 280 282 284
269 285 293 296 308 317 325 320 286 247 218 187 166 153 145 139 139 155 187 226 246 255 261 255 222 228 231 227 227 238 255 267 273 278 279 280 284 287 291 294 293 294 298 301 302 302 301 302 304 306 306 306 291 261 238 243 249 256 262 267 270 272 273 275 277 277 277 278 280
5 8 348 322 306 296 288 277 280 298 50 85 95 95 97 109 141 210 244 257 262 270 274 263 248 247 248 246 248 257 266 272 272 274 278 286 290 291 292 293 290 290 293 298 297 297 297 299 302 303 304 304 296 280 258 255 257 261 264 267 270 271 273 275 277 277 276 276 277
141 151 172 221 244 252 263 328 18 34 48 63 75 85 95 108 228 272 276 277 265 252 245 244 250 260 267 273 276 276 276 276 281 296 330 0 317 296 291 290 286 286 288 292 291 291 294 297 301 302 303 303 298 288 271 265 267 268 271 272 272 271 271 271 273 274 275 275 275
192 182 184 196 205 203 56 44 45 53 63 75 84 100 125 166 235 257 261 257 246 241 242 248 259 271 280 287 289 290 292 299 318 341 4 18 313 291 288 285 281 281 283 285 286 289 293 297 301 303 304 304 301 292 280 277 278 277 277 277 276 275 273 271 271 271 272 273 275
205 189 178 170 125 78 63 58 60 67 80 93 109 153 209 224 236 242 245 245 246 254 269 288 303 314 320 324 324 317 311 312 320 327 339 36 289 284 283 281 279 280 281 283 286 290 294 298 301 304 305 306 301 292 281 279 280 279 279 279 279 277 275 274 273 272 272 274 278
182 127 97 79 70 67 67 66 66 73 85 100 168 240 250 251 250 254 260 269 282 304 325 341 351 351 346 339 342 339 324 303 304 304 301 241 269 276 278 280 281 283 285 288 291 293 295 298 301 304 306 306 300 289 281 278 278 278 279 280 281 281 279 277 279 280 280 281 282
60 67 71 73 73 74 76 78 60 34 14 356 329 300 284 277 279 295 323 347 348 348 345 347 345 337 324 313 310 303 292 281 293 296 293 274 250 261 274 283 284 286 289 292 294 294 295 298 302 305 307 305 299 291 286 282 282 282 283 285 288 289 288 285 286 285 284 282 280
64 73 80 83 77 70 59 44 24 10 0 349 339 328 316 305 316 344 5 16 11 351 332 322 311 299 291 291 294 292 289 284 285 288 288 281 248 246 263 282 286 288 290 294 295 295 296 298 303 307 309 304 297 292 288 288 287 288 290 293 296 296 293 288 286 283 279 275 275
60 73 75 67 54 43 32 24 16 7 357 345 336 331 329 331 343 3 18 27 35 330 274 279 281 284 293 311 314 314 311 307 290 284 282 281 263 253 257 272 281 286 290 294 295 295 296 299 303 308 310 306 298 291 288 290 291 291 293 296 297 295 292 287 283 279 275 270 274
36 40 44 46 43 37 30 22 12 1 348 335 330 328 327 325 329 350 16 36 58 135 238 265 285 302 325 340 335 329 324 320 313 297 286 285 281 280 276 265 275 282 288 293 294 295 297 299 304 310 312 307 301 293 289 292 294 295 297 300 301 299 297 295 292 289 285 278 279
41 42 42 43 42 38 31 19 1 346 333 333 332 325 317 317 322 342 5 22 25 13 329 306 317 333 348 356 351 341 332 325 317 308 301 301 296 294 289 271 275 280 285 289 292 294 296 300 305 311 314 310 307 300 296 298 300 302 304 307 307 306 304 303 301 299 296 292 288